When you browse on this site, cookies collect data to enhance your experience and personalize the content and advertising you see.
Visit our Privacy Policy to learn more. By continuing to use the site, you agree to this use of cookies and data.
  • en Belgique
  • Liste des pays
  • À 7 jours
  • Température de l'eau
  • Carte satellitaire
  • Carte météo
  • Widgets météo
  • user-avatar
    Se connecter

    Météo par heure à Galata

    Ce jour, 23 Mars, Samedi

    Heure Température Précipitation Vent Pression Humidité
    00:00 +9°C° 0 mm 2 m/s 763 mmHg 67%
    01:00 +9°C° 0 mm 2 m/s 763 mmHg 65%
    02:00 +9°C° 0 mm 3 m/s 762 mmHg 61%
    03:00 +9°C° 0 mm 3 m/s 762 mmHg 65%
    04:00 +7°C° 0 mm 4 m/s 762 mmHg 70%
    05:00 +7°C° 0 mm 4 m/s 762 mmHg 74%
    06:00 +8°C° 0 mm 4 m/s 762 mmHg 72%
    07:00 +10°C° 0 mm 4 m/s 762 mmHg 70%
    08:00 +9°C° 0 mm 5 m/s 762 mmHg 67%
    09:00 +10°C° 0 mm 5 m/s 762 mmHg 62%
    10:00 +10°C° 0 mm 5 m/s 762 mmHg 57%
    11:00 +12°C° 0 mm 5 m/s 762 mmHg 52%
    12:00 +12°C° 0 mm 5 m/s 761 mmHg 50%
    13:00 +12°C° 0 mm 5 m/s 761 mmHg 47%
    14:00 +12°C° 0 mm 5 m/s 761 mmHg 45%
    15:00 +12°C° 0 mm 4 m/s 761 mmHg 44%
    16:00 +11°C° 0 mm 4 m/s 761 mmHg 43%
    17:00 +11°C° 0 mm 3 m/s 761 mmHg 42%
    18:00 +10°C° 0 mm 3 m/s 761 mmHg 45%
    19:00 +9°C° 0 mm 3 m/s 762 mmHg 47%
    20:00 +9°C° 0 mm 3 m/s 762 mmHg 50%
    21:00 +8°C° 0 mm 2 m/s 762 mmHg 53%
    22:00 +8°C° 0 mm 1 m/s 762 mmHg 56%
    23:00 +7°C° 0 mm 1 m/s 762 mmHg 59%

    Demain, 24 Mars, Dimanche

    Heure Température Précipitation Vent Pression Humidité
    00:00 +7°C° 0 mm 1 m/s 762 mmHg 60%
    01:00 +6°C° 0 mm 1 m/s 762 mmHg 60%
    02:00 +6°C° 0 mm 1 m/s 762 mmHg 60%
    03:00 +5°C° 0 mm 2 m/s 762 mmHg 59%
    04:00 +4°C° 0 mm 2 m/s 762 mmHg 58%
    05:00 +3°C° 0 mm 3 m/s 762 mmHg 58%
    06:00 +4°C° 0 mm 3 m/s 762 mmHg 55%
    07:00 +5°C° 0 mm 3 m/s 762 mmHg 53%
    08:00 +5°C° 0 mm 3 m/s 762 mmHg 50%
    09:00 +8°C° 0 mm 3 m/s 762 mmHg 46%
    10:00 +9°C° 0 mm 3 m/s 762 mmHg 43%
    11:00 +11°C° 0 mm 3 m/s 762 mmHg 39%
    12:00 +11°C° 0 mm 3 m/s 761 mmHg 38%
    13:00 +12°C° 0 mm 3 m/s 761 mmHg 37%
    14:00 +13°C° 0 mm 3 m/s 761 mmHg 36%
    15:00 +12°C° 0 mm 3 m/s 760 mmHg 39%
    16:00 +12°C° 0 mm 3 m/s 760 mmHg 42%
    17:00 +11°C° 0 mm 3 m/s 759 mmHg 46%
    18:00 +10°C° 0 mm 3 m/s 759 mmHg 52%
    19:00 +8°C° 0 mm 2 m/s 759 mmHg 59%
    20:00 +7°C° 0 mm 2 m/s 759 mmHg 65%
    21:00 +7°C° 0 mm 2 m/s 759 mmHg 67%
    22:00 +6°C° 0 mm 2 m/s 759 mmHg 68%
    23:00 +6°C° 0 mm 2 m/s 759 mmHg 70%

    Après-demain, 25 Mars, Lundi

    Heure Température Précipitation Vent Pression Humidité
    00:00 +6°C° 0 mm 2 m/s 759 mmHg 70%
    01:00 +6°C° 0 mm 2 m/s 758 mmHg 70%
    02:00 +6°C° 0 mm 2 m/s 758 mmHg 70%
    03:00 +5°C° 0 mm 2 m/s 758 mmHg 70%
    04:00 +5°C° 0 mm 2 m/s 757 mmHg 70%
    05:00 +5°C° 0 mm 2 m/s 757 mmHg 70%
    06:00 +6°C° 0 mm 2 m/s 757 mmHg 66%
    07:00 +7°C° 0 mm 2 m/s 757 mmHg 62%
    08:00 +8°C° 0 mm 2 m/s 756 mmHg 58%
    09:00 +10°C° 0 mm 3 m/s 756 mmHg 52%
    10:00 +12°C° 0 mm 3 m/s 756 mmHg 47%
    11:00 +14°C° 0 mm 3 m/s 756 mmHg 42%
    12:00 +15°C° 0 mm 4 m/s 755 mmHg 42%
    13:00 +15°C° 0 mm 5 m/s 754 mmHg 42%
    14:00 +16°C° 0 mm 5 m/s 754 mmHg 43%
    15:00 +15°C° 0 mm 5 m/s 753 mmHg 47%
    16:00 +14°C° 0 mm 5 m/s 753 mmHg 50%
    17:00 +13°C° 0 mm 5 m/s 753 mmHg 54%
    18:00 +12°C° 0 mm 5 m/s 753 mmHg 60%
    19:00 +10°C° 0 mm 4 m/s 753 mmHg 65%
    20:00 +8°C° 0 mm 4 m/s 753 mmHg 70%
    21:00 +8°C° 0 mm 4 m/s 753 mmHg 72%
    22:00 +7°C° 0 mm 4 m/s 753 mmHg 74%
    23:00 +7°C° 0 mm 4 m/s 753 mmHg 76%

    26 Mars, Mardi

    Heure Température Précipitation Vent Pression Humidité
    00:00 +8°C° 0 mm 3 m/s 753 mmHg 79%
    01:00 +8°C° 0 mm 3 m/s 753 mmHg 81%
    02:00 +8°C° 0 mm 3 m/s 753 mmHg 83%
    03:00 +7°C° 0 mm 3 m/s 752 mmHg 84%
    04:00 +7°C° 0 mm 3 m/s 752 mmHg 84%
    05:00 +7°C° 0 mm 3 m/s 752 mmHg 85%
    06:00 +8°C° 0 mm 3 m/s 753 mmHg 80%
    07:00 +9°C° 0 mm 3 m/s 753 mmHg 76%
    08:00 +10°C° 0 mm 2 m/s 753 mmHg 71%
    09:00 +13°C° 0 mm 2 m/s 753 mmHg 64%
    10:00 +14°C° 0 mm 3 m/s 754 mmHg 56%
    11:00 +17°C° 0 mm 3 m/s 754 mmHg 49%
    12:00 +17°C° 0 mm 3 m/s 754 mmHg 48%
    13:00 +18°C° 0 mm 3 m/s 754 mmHg 48%
    14:00 +19°C° 0 mm 3 m/s 754 mmHg 48%
    15:00 +15°C° 0.1 mm 5 m/s 755 mmHg 56%
    16:00 +12°C° 0.1 mm 7 m/s 755 mmHg 65%
    17:00 +10°C° 0.1 mm 9 m/s 755 mmHg 74%
    18:00 +9°C° 0.1 mm 8 m/s 756 mmHg 74%
    19:00 +9°C° 0.1 mm 7 m/s 757 mmHg 75%
    20:00 +8°C° 0.1 mm 6 m/s 758 mmHg 76%
    21:00 +8°C° 0.2 mm 5 m/s 758 mmHg 75%
    22:00 +8°C° 0.2 mm 5 m/s 759 mmHg 74%
    23:00 +8°C° 0.2 mm 5 m/s 759 mmHg 73%

    27 Mars, Mercredi

    Heure Température Précipitation Vent Pression Humidité
    00:00 +7°C° 0 mm 5 m/s 759 mmHg 73%
    01:00 +7°C° 0 mm 5 m/s 760 mmHg 72%
    02:00 +5°C° 0 mm 6 m/s 760 mmHg 71%
    03:00 +5°C° 0 mm 6 m/s 760 mmHg 69%
    04:00 +4°C° 0 mm 6 m/s 760 mmHg 67%
    05:00 +3°C° 0 mm 6 m/s 760 mmHg 65%
    06:00 +4°C° 0 mm 6 m/s 761 mmHg 62%
    07:00 +4°C° 0 mm 6 m/s 762 mmHg 59%
    08:00 +5°C° 0 mm 5 m/s 762 mmHg 55%
    09:00 +7°C° 0 mm 5 m/s 762 mmHg 51%
    10:00 +8°C° 0 mm 4 m/s 763 mmHg 46%
    11:00 +10°C° 0 mm 4 m/s 763 mmHg 41%
    12:00 +10°C° 0 mm 4 m/s 763 mmHg 42%
    13:00 +11°C° 0 mm 4 m/s 763 mmHg 42%
    14:00 +11°C° 0 mm 3 m/s 763 mmHg 42%
    15:00 +11°C° 0 mm 4 m/s 763 mmHg 44%
    16:00 +10°C° 0 mm 4 m/s 763 mmHg 45%
    17:00 +10°C° 0 mm 4 m/s 763 mmHg 47%
    18:00 +8°C° 0 mm 4 m/s 763 mmHg 51%
    19:00 +7°C° 0 mm 3 m/s 764 mmHg 55%
    20:00 +5°C° 0 mm 3 m/s 764 mmHg 58%
    21:00 +6°C° 0 mm 2 m/s 764 mmHg 58%
    22:00 +6°C° 0 mm 2 m/s 765 mmHg 57%
    23:00 +5°C° 0 mm 2 m/s 765 mmHg 56%

    28 Mars, Jeudi

    Heure Température Précipitation Vent Pression Humidité
    00:00 +4°C° 0 mm 3 m/s 765 mmHg 57%
    01:00 +4°C° 0 mm 4 m/s 765 mmHg 57%
    02:00 +3°C° 0 mm 5 m/s 765 mmHg 58%
    03:00 +2°C° 0 mm 5 m/s 765 mmHg 59%
    04:00 +2°C° 0 mm 5 m/s 766 mmHg 61%
    05:00 +2°C° 0 mm 5 m/s 766 mmHg 62%
    06:00 +2°C° 0 mm 5 m/s 766 mmHg 60%
    07:00 +3°C° 0 mm 6 m/s 766 mmHg 58%
    08:00 +4°C° 0 mm 6 m/s 767 mmHg 55%
    09:00 +5°C° 0 mm 6 m/s 767 mmHg 52%
    10:00 +5°C° 0 mm 6 m/s 767 mmHg 48%
    11:00 +7°C° 0 mm 6 m/s 767 mmHg 45%
    12:00 +8°C° 0 mm 6 m/s 767 mmHg 43%
    13:00 +8°C° 0 mm 6 m/s 767 mmHg 41%
    14:00 +8°C° 0 mm 7 m/s 767 mmHg 39%
    15:00 +6°C° 0 mm 7 m/s 766 mmHg 40%
    16:00 +6°C° 0 mm 7 m/s 766 mmHg 41%
    17:00 +5°C° 0 mm 6 m/s 766 mmHg 42%
    18:00 +4°C° 0 mm 6 m/s 766 mmHg 46%
    19:00 +3°C° 0 mm 5 m/s 767 mmHg 50%
    20:00 +2°C° 0 mm 5 m/s 767 mmHg 54%
    21:00 +3°C° 0 mm 4 m/s 767 mmHg 55%
    22:00 +3°C° 0 mm 4 m/s 767 mmHg 56%
    23:00 +1°C° 0 mm 4 m/s 767 mmHg 57%
    Voir plus